Overview Statistics Trail Chart Weather Telemetry Raw packets
 

This is the latest recevied weather packets stored in our database for station/object S56VIL-11. If no packets are shown the sender has not sent any weather packets the latest 10 day(s).

<< 28 29 30 31 32 33 34 >>
Time Temp. Humidity Pressure Rain* Wind** Luminosity Snow
1787951757 18.89° C 71% 1029.2 hPa - - - -
1787950860 18.89° C 71% 1029.3 hPa - - - -
1787949957 18.89° C 71% 1029.4 hPa - - - -
1787949060 18.89° C 71% 1031.5 hPa - - - -
1787948157 21.67° C 68% 1032.6 hPa - - - -
1787947257 22.22° C 68% 1030.1 hPa - - - -
1787946357 22.22° C 68% 1029.3 hPa - - - -
1787945459 22.22° C 68% 1029.1 hPa - - - -
1787944557 22.78° C 68% 1029.3 hPa - - - -
1787943659 22.78° C 68% 1029.5 hPa - - - -
1787942757 22.78° C 67% 1029.3 hPa - - - -
1787941858 22.78° C 68% 1029.5 hPa - - - -
1787941003 23.33° C 67% 1029.4 hPa - - - -
1787940957 23.33° C 67% 1029.4 hPa - - - -
1787940058 23.33° C 67% 1028.6 hPa - - - -
1787939159 23.33° C 67% 1029.2 hPa - - - -
1787938264 23.33° C 67% 1029.5 hPa - - - -
1787937354 23.33° C 68% 1029.4 hPa - - - -
1787936464 23.89° C 68% 1029.6 hPa - - - -
1787935554 23.33° C 68% 1029.2 hPa - - - -
1787934664 23.89° C 68% 1029.5 hPa - - - -
1787933753 23.89° C 68% 1029.4 hPa - - - -
1787932856 24.44° C 67% 1029.2 hPa - - - -
1787931953 25.56° C 66% 1029.3 hPa - - - -
1787930153 26.67° C 66% 1029.4 hPa - - - -

* Rain since midnight (hover to see other rain measurements)
** Current wind speed in m/s (hover to see current wind gust speed)